Starlink 30608

operational
NORAD ID: 58091 Int'l Des: 2023-160 Owner: SPXS Country: US Constellation: starlink
LEOCIRCULAR

Starlink 30608について

説明を読み込み中...

リアルタイム位置

3D地球を読み込み中...

次回通過

高度履歴

Altitude vs Time

uPlot chart will show altitude changes over time

軌道要素

1 58091U 23160S 25353.80169990 .00001011 00000-0 89885-4 0 9990
2 58091 43.0025 154.0871 0001266 244.8453 115.2258 15.02540099120901
Epoch: Dec 19, 2025 • Age: 13 hours

現在のステータス

高度 563.0 km
速度 7.59 km/s
衛星直下点 43.15°N, 26.83°E
打ち上げ日 Oct 18, 2023
運用期間 2.1 years
タイプ internet

技術仕様

分類 Payload
質量 730.00 kg
乾燥質量 700.00 kg
総質量 730.00 kg
長さ 0.30 m
直径 4.10 m
スパン 29.00 m
形状 Box + pan
製造者 SPXS
バスタイプ Starlink V2M
フェーズステータス In Orbit
所有者/国 SPXS/US

大規模コンステレーション

Loading constellations...